Weather History for Benson, MN

Change the Weather History Date:

Tuesday, May 14, 2013

  Actual Average Record
Temperature  
Mean Temperature 70 °F -  
Max Temperature 95 °F 71 °F 95 °F (2001)
Min Temperature 46 °F 46 °F 28 °F (2000)
Cooling Degree Days 6    
Growing Degree Days 20 (Base 50)    
Moisture  
Dew Point 43 °F    
Average Humidity 42    
Maximum Humidity 82    
Minimum Humidity 12    
Precipitation  
Precipitation 0.00 in - - ()
Sea Level Pressure  
Sea Level Pressure 29.62 in    
Wind  
Wind Speed 9 mph (NNW)    
Max Wind Speed 33 mph    
Max Gust Speed 43 mph    
Visibility 10 miles    
Events Rain    
Averages and records for this station are not official NWS values.
T = Trace of Precipitation, MM = Missing Value Source: NWS Daily Summary

Daily Weather History Graph

Daily Weather History Graph

Search for Another Location

Airport:

Trip Planner

Search our weather history database for the weather conditions in past years. The results will help you decide how hot, cold, wet, or windy it might be!

Date:

Astronomy

May. 14, 2013 Rise Set
Actual Time 5:53 AM CDT 8:45 PM CDT
Civil Twilight 5:19 AM CDT 9:19 PM CDT
Nautical Twilight 4:35 AM CDT 10:03 PM CDT
Astronomical Twilight 3:43 AM CDT 10:55 PM CDT
Moon 9:34 AM CDT (5/14) No Moon Set
Length of Visible Light 16h 00m
Length of Day
14h 51m
Waxing Crescent, 19% of the Moon is Illuminated
May 14
Waxing Crescent
May 17
First Quarter
May 24
Full
May 31
Last Quarter
Jun 8
New

Hourly Weather History & Observations

Time (CDT) Temp. Dew Point Humidity Pressure Visibility Wind Dir Wind Speed Gust Speed Precip Events Conditions
12:32 AM 60.8 °F 42.8 °F 52% 29.68 in 10.0 mi Calm Calm - N/A   Clear
12:53 AM 59.0 °F 42.8 °F 55% 29.69 in 10.0 mi Calm Calm - N/A   Clear
1:13 AM 55.4 °F 42.8 °F 63% 29.68 in 10.0 mi Calm Calm - N/A   Clear
1:32 AM 55.4 °F 42.8 °F 63% 29.68 in 10.0 mi Calm Calm - N/A   Clear
1:53 AM 55.4 °F 42.8 °F 63% 29.68 in 10.0 mi WSW 3.5 mph - N/A   Clear
2:12 AM 55.4 °F 42.8 °F 63% 29.68 in 10.0 mi WSW 3.5 mph - N/A   Clear
2:33 AM 55.4 °F 42.8 °F 63% 29.68 in 10.0 mi Calm Calm - N/A   Clear
2:53 AM 53.6 °F 42.8 °F 67% 29.68 in 10.0 mi Calm Calm - N/A   Clear
3:12 AM 51.8 °F 42.8 °F 71% 29.67 in 10.0 mi Calm Calm - N/A   Clear
3:33 AM 51.8 °F 42.8 °F 71% 29.66 in 10.0 mi SSE 3.5 mph - N/A   Clear
3:53 AM 50.0 °F 42.8 °F 76% 29.66 in 10.0 mi Calm Calm - N/A   Clear
4:12 AM 51.8 °F 42.8 °F 71% 29.66 in 10.0 mi South 4.6 mph - N/A   Clear
4:53 AM 51.8 °F 42.8 °F 71% 29.64 in 10.0 mi SSE 4.6 mph - N/A   Clear
5:12 AM 48.2 °F 42.8 °F 82% 29.63 in 10.0 mi SSE 4.6 mph - N/A   Clear
5:33 AM 53.6 °F 42.8 °F 67% 29.62 in 10.0 mi SSE 3.5 mph - N/A   Clear
5:53 AM 51.8 °F 42.8 °F 71% 29.63 in 10.0 mi Calm Calm - N/A   Clear
6:12 AM 46.4 °F 41.0 °F 81% 29.65 in 10.0 mi Calm Calm - N/A   Clear
6:33 AM 51.8 °F 42.8 °F 71% 29.62 in 10.0 mi SSE 3.5 mph - N/A   Clear
6:53 AM 55.4 °F 44.6 °F 67% 29.63 in 10.0 mi SSE 4.6 mph - N/A   Clear
7:12 AM 59.0 °F 44.6 °F 59% 29.62 in 10.0 mi South 8.1 mph - N/A   Scattered Clouds
7:33 AM 60.8 °F 44.6 °F 55% 29.61 in 10.0 mi SSE 8.1 mph - N/A Rain Light Rain
7:52 AM 62.6 °F 44.6 °F 52% 29.61 in 10.0 mi SSE 6.9 mph - N/A Rain Light Rain
8:13 AM 62.6 °F 46.4 °F 55% 29.62 in 10.0 mi South 4.6 mph - N/A Rain Light Rain
8:33 AM 64.4 °F 46.4 °F 52% 29.60 in 10.0 mi SSE 8.1 mph - N/A   Scattered Clouds
8:52 AM 62.6 °F 48.2 °F 59% 29.62 in 10.0 mi East 5.8 mph - N/A Rain Light Rain
9:13 AM 66.2 °F 48.2 °F 52% 29.62 in 10.0 mi East 4.6 mph - N/A Rain Light Rain
9:32 AM 64.4 °F 51.8 °F 64% 29.61 in 10.0 mi ESE 9.2 mph - N/A Rain Light Rain
9:52 AM 68.0 °F 51.8 °F 56% 29.55 in 10.0 mi SE 10.4 mph - N/A Rain Light Rain
10:12 AM 75.2 °F 50.0 °F 41% 29.51 in 10.0 mi SSE 11.5 mph 17.3 mph N/A   Clear
10:32 AM 78.8 °F 51.8 °F 39% 29.51 in 10.0 mi South 15.0 mph 21.9 mph N/A   Clear
10:53 AM 82.4 °F 50.0 °F 32% 29.50 in 10.0 mi South 15.0 mph 26.5 mph N/A   Clear
11:12 AM 82.4 °F 50.0 °F 32% 29.52 in 10.0 mi South 15.0 mph - N/A   Clear
11:33 AM 87.8 °F 48.2 °F 25% 29.53 in 10.0 mi SW 16.1 mph 21.9 mph N/A   Clear
11:52 AM 87.8 °F 48.2 °F 25% 29.52 in 10.0 mi WSW 15.0 mph 18.4 mph N/A   Clear
12:12 PM 89.6 °F 46.4 °F 22% 29.53 in 10.0 mi WNW 15.0 mph 18.4 mph N/A   Clear
12:33 PM 89.6 °F 46.4 °F 22% 29.53 in 10.0 mi NNW 16.1 mph 19.6 mph N/A   Clear
12:52 PM 91.4 °F 46.4 °F 21% 29.53 in 10.0 mi NNW 11.5 mph 19.6 mph N/A   Clear
1:12 PM 91.4 °F 46.4 °F 21% 29.53 in 10.0 mi North 15.0 mph - N/A   Clear
1:33 PM 93.2 °F 46.4 °F 20% 29.53 in 10.0 mi North 16.1 mph 24.2 mph N/A   Clear
1:52 PM 93.2 °F 44.6 °F 19% 29.53 in 10.0 mi NNW 23.0 mph 29.9 mph N/A   Clear
2:13 PM 95.0 °F 42.8 °F 16% 29.54 in 10.0 mi NNW 23.0 mph 28.8 mph N/A   Clear
2:33 PM 93.2 °F 39.2 °F 15% 29.54 in 10.0 mi NNW 26.5 mph 38.0 mph N/A   Clear
2:52 PM 95.0 °F 39.2 °F 14% 29.55 in 10.0 mi NNW 33.4 mph 39.1 mph N/A   Clear
3:12 PM 93.2 °F 39.2 °F 15% 29.56 in 10.0 mi North 31.1 mph 40.3 mph N/A   Clear
3:33 PM 93.2 °F 41.0 °F 16% 29.56 in 10.0 mi NNW 27.6 mph 36.8 mph N/A   Clear
3:52 PM 91.4 °F 41.0 °F 17% 29.56 in 10.0 mi NNW 27.6 mph 35.7 mph N/A   Clear
4:13 PM 91.4 °F 37.4 °F 15% 29.58 in 10.0 mi NNW 26.5 mph 41.4 mph N/A   Clear
4:33 PM 91.4 °F 37.4 °F 15% 29.59 in 10.0 mi NNW 29.9 mph 40.3 mph N/A   Clear
4:52 PM 89.6 °F 32.0 °F 13% 29.60 in 10.0 mi NNW 28.8 mph 42.6 mph N/A   Clear
5:13 PM 87.8 °F 30.2 °F 13% 29.60 in 10.0 mi North 31.1 mph 38.0 mph N/A   Clear
5:33 PM 87.8 °F 30.2 °F 13% 29.61 in 10.0 mi NNW 28.8 mph 39.1 mph N/A   Clear
5:52 PM 86.0 °F 28.4 °F 12% 29.61 in 10.0 mi NW 26.5 mph 36.8 mph N/A   Clear
6:13 PM 84.2 °F 30.2 °F 14% 29.61 in 10.0 mi NNW 27.6 mph 39.1 mph N/A   Clear
6:32 PM 84.2 °F 30.2 °F 14% 29.62 in 10.0 mi NNW 27.6 mph 35.7 mph N/A   Clear
6:52 PM 82.4 °F 33.8 °F 17% 29.63 in 10.0 mi NNW 26.5 mph 35.7 mph N/A   Clear
7:13 PM 80.6 °F 33.8 °F 18% 29.63 in 10.0 mi North 25.3 mph 34.5 mph N/A   Clear
7:32 PM 80.6 °F 35.6 °F 20% 29.64 in 10.0 mi NNW 27.6 mph 33.4 mph N/A   Clear
7:53 PM 78.8 °F 39.2 °F 24% 29.65 in 10.0 mi North 23.0 mph 31.1 mph N/A   Clear
8:13 PM 75.2 °F 41.0 °F 29% 29.66 in 10.0 mi North 26.5 mph 33.4 mph N/A   Clear
8:32 PM 73.4 °F 41.0 °F 31% 29.67 in 10.0 mi NNW 20.7 mph 29.9 mph N/A   Clear
8:53 PM 71.6 °F 42.8 °F 35% 29.68 in 10.0 mi North 19.6 mph 27.6 mph N/A   Clear
9:13 PM 69.8 °F 44.6 °F 40% 29.70 in 10.0 mi North 23.0 mph 29.9 mph N/A   Clear
9:32 PM 68.0 °F 44.6 °F 43% 29.72 in 10.0 mi North 21.9 mph 25.3 mph N/A   Clear
9:53 PM 66.2 °F 42.8 °F 43% 29.74 in 10.0 mi North 17.3 mph 25.3 mph N/A   Clear
10:12 PM 64.4 °F 44.6 °F 49% 29.75 in 10.0 mi North 17.3 mph 24.2 mph N/A   Clear
10:32 PM 64.4 °F 44.6 °F 49% 29.75 in 10.0 mi North 18.4 mph 27.6 mph N/A   Clear
10:53 PM 62.6 °F 44.6 °F 52% 29.76 in 10.0 mi North 18.4 mph - N/A   Clear
11:12 PM 62.6 °F 44.6 °F 52% 29.77 in 10.0 mi North 17.3 mph 21.9 mph N/A   Clear
11:32 PM 62.6 °F 44.6 °F 52% 29.78 in 10.0 mi North 16.1 mph - N/A   Clear
11:53 PM 60.8 °F 44.6 °F 55% 29.79 in 10.0 mi North 13.8 mph 20.7 mph N/A   Clear